Regional Weather Roundup
Issued by NWS

Home | Current Version | Previous Version | Text Only | Print | Product List | Glossary On
Versions: 1 2 3 4 5 6 7 8 9 10 11 12 13 14 15 16 17 18 19 20 21 22 23 24 25 26 27 28 29 30 31 32 33 34 35 36 37 38 39 40 41 42 43 44 45 46 47 48 49 50
000
ASUS42 KFFC 181403
RWRGA
WEATHER ROUNDUP FOR GEORGIA
NATIONAL WEATHER SERVICE PEACHTREE CITY GA
900 AM EST SAT NOV 18 2017

NOTE: "FAIR" INDICATES FEW OR NO CLOUDS BELOW 12,000 FEET WITH NO
SIGNIFICANT WEATHER AND/OR OBSTRUCTIONS TO VISIBILITY.

* = USE WITH CAUTION. THE STATIONS MARKED WITH AN ASTERISK MAY NOT
REPORT WEATHER SUCH AS PRECIPITATION, FOG, OR THUNDER AND ARE NOT
QUALITY CONTROLLED BY NWS.

THE REMARK "TC" DENOTES TEMPERATURE READING IN DEGREES CELSIUS.

GAZ001>058-181500-
NORTH GEORGIA

CITY           SKY/WX    TMP DP  RH WIND       PRES   REMARKS
ATLANTA        FOG       51  50  96 VRB7      30.01F VSB 1
ATHENS         CLOUDY    47  44  90 CALM      30.05S
CHAMBLEE       MOSUNNY   50  47  89 S8        30.02S
PEACHTREE CITY CLOUDY    51  50  96 SE5       30.02F FOG
ROME           CLOUDY    53  47  79 CALM      29.96F
WEST ATLANTA   MOSUNNY   48  47  96 CALM      30.01F
GAINESVILLE    CLOUDY    50  45  83 CALM      30.04F
CARTERSVILLE   CLOUDY    52  48  86 SE9G16    29.99F


CITY           SKY/WX    TMP DP  RH WIND       PRES   REMARKS
DALTON*        CLOUDY    54  45  71 S7        29.97F
LAWRENCEVILLE* CLOUDY    47  44  90 E3        30.04S
MARIETTA       CLOUDY    51  49  91 S6        30.00F
KENNESAW*      PTSUNNY   50  47  89 E5        30.01F
CANTON*        CLOUDY    50  46  87 CALM      30.02F
$$

GAZ059>098-102>109-181500-
CENTRAL GEORGIA

CITY           SKY/WX    TMP DP  RH WIND       PRES   REMARKS
AUGUSTA-BUSH   SUNNY     48  44  86 CALM      30.06S
AUGUSTA-DANIEL SUNNY     52  46  80 VRB3      30.06S
COLUMBUS       SUNNY     53  49  86 CALM      30.03S
MACON          FOG       48  48 100 SE3       30.05F VSB 1/8
ROBINS AFB     CLOUDY    47  46  97 SE3       30.05S


CITY           SKY/WX    TMP DP  RH WIND       PRES   REMARKS
LAGRANGE*      SUNNY     55  54  95 S5        30.02R
SYLVANIA*      SUNNY     54  52  93 CALM      30.06F
MILLEDGEVILLE* SUNNY     50  48  93 CALM      30.05F
$$

GAZ099>101-110>166-181500-
SOUTH GEORGIA

CITY           SKY/WX    TMP DP  RH WIND       PRES   REMARKS
SAVANNAH       MOSUNNY   61  57  87 E3        30.06S
VALDOSTA       SUNNY     56  54  93 SE3       30.06R
ALMA           SUNNY     59  56  89 SE3       30.05S
ST SIMONS      PTSUNNY   65  62  90 CALM      30.06R
FT STEWART     SUNNY     58  52  82 CALM      30.03F
ALBANY         FOG       51  51 100 CALM      30.07S VSB<1/4
HUNTER AFB     SUNNY     63  59  89 E5        30.03S
MOODY AFB      SUNNY     56  56 100 SE3       30.04F
BRUNSWICK      CLOUDY    61  59  94 CALM      30.07R


CITY           SKY/WX    TMP DP  RH WIND       PRES   REMARKS
BAINBRIDGE*    SUNNY     57  57 100 SE3       30.04S
MOULTRIE*        N/A     54  52  94 CALM      30.06S FOG
VIDALIA*       SUNNY     59  54  82 SE3       30.06S
WAYCROSS*      SUNNY     59  56  90 SE3       30.06S
DOUGLAS*       SUNNY     57  55  94 S3        30.07S
$$



USA.gov is the U.S. government's official web portal to all federal, state and local government web resources and services.